Showing default

OOV-CUBE, 60240

Orbit data source: Space-Track

OOV-CUBE, 60240 is a payload satellite owned by TUB (DE) in LEO that was launched on Tue, 09 Jul 2024 UTC via an ARIANE 62 launch vehicle from the French Guiana (FRGUI). Payload-class satellites include a variety of spacecraft equipped with specific instruments for various scientific and technological missions. These include communications satellites like Starlink; space stations such as the ISS; scientific satellites like the Hubble; Earth observation satellites from companies like Planet Labs, Umbra, and HawkEye 360; GPS; miniature CubeSats for education and research; and military/defense satellites.

Loading next visibility...
Identifier
60240, 2024-128F
Orbit
LEO
Last TLE update
8 hours ago
Origin
Manufacturer
TUB
Mission
Operational Amateur Technology
Bus & Motor
TUBSAT, Unknown motor
Mass
17 kg wet, 17 kg dry
Launch date (UTC)
2024-07-09 (10 months ago)
Launch vehicle
ARIANE 62
Launch site
French Guiana (FRGUI)
Object type
Payload
Rocket body
Debris
Shape & HBR
Box, 0.25 m
Radar Cross Section
0.094 m², Small (<0.1 m²)

Expand to show TLE details & history

TLE from 8 hours ago
0 OOV-CUBE
1 60240U 24128F   25129.53517843  .00002218  00000-0  18930-3 0  9991
2 60240  61.9956 190.1779 0048901  47.2065 313.3120 15.00078221 45503
Epoch: 2025-05-09T12:50Z
Definitive object data (Epoch: 2025-05-09T12:50:39.416Z)
Latitude
-0.00006°
Longitude
129.92371°
Altitude
545.214 km
Speed
7.603 km/s
True Right ascension
12h 40m 42s
True Declination
0° 00' 00"
Sunlit
Object was in full shadow at TLE epoch
Visualization TLE readout
Latitude
50.41558°
Longitude
168.49541°
Altitude
540.394 km
Speed
7.616 km/s
Apparent Right ascension
16h 19m 40s
Apparent Declination
7° 50' 46"
Sunlit
Object is in daylight
Visualization observer readout
Local Sidereal Time
05:17:49
Azimuth
19.056° NNE
Elevation
-40.381°
Doppler factor
1
Orbital elements
Apogee altitude
599.541 km
Perigee altitude
531.63 km
Semi-major axis
6,943.723 km
Eccentricity
0.0048901
Inclination
61.9956°
RAAN
190.1779°
Arg. of periapsis
47.2065°
True anomaly
312.90255°
Mean anomaly
313.312°
Eccentric anomaly
313.10745°
Mean motion
3.75107 °/min
BSTAR
0.0001893
Orbital period
95.97 mins
Loading maneuver chart data...
Loading SW <> Apogee altitude chart data...
Loading historical data...
Loading historical data...
Loading historical data...
Loading historical data...
Loading historical data...
Loading historical data...
Loading historical data...

OOV-CUBE Visibility forecast

Observer location: undefined°, undefined°

Span
Click to sort rows by Start time (UTC) header in descending order
Start Az.
Max El. time (UTC)
Max El. Az.
Max El.
End time (UTC)
End Az.
5 mins2025-05-10 04:58:35.116Z159.297° S2025-05-10 05:01:35.116Z107.767° ESE18.016°2025-05-10 05:03:35.116Z74.613° E
6 mins2025-05-10 06:37:35.116Z252.547° W2025-05-10 06:39:35.116Z296.457° NW30.867°2025-05-10 06:43:35.116Z20.505° NNE
5 mins2025-05-10 13:21:35.116Z3.092° NNE2025-05-10 13:23:35.116Z42.401° NE22.047°2025-05-10 13:26:35.116Z94.607° ESE
6 mins2025-05-10 15:00:35.116Z294.356° NW2025-05-10 15:02:35.116Z246.847° WSW30.981°2025-05-10 15:06:35.116Z173.24° S
|